Location: Unspecified
(0.0000°N, 0.0000°E)
Time: 04:36:38
(UTC+00:00)

ISS - Pass Details

Date: 15 November 2019
Orbit: 412 x 421 km, 51.6° (Epoch: 12 November)

Event Time Altitude Azimuth Distance (km) Brightness Sun altitude
Rises 18:02:49 0° 209° (SSW) 2,344 0.9 -4.3°
Reaches altitude 10° 18:04:56 10° 204° (SSW) 1,481 -0.3 -4.8°
Maximum altitude 18:08:11 54° 126° (SE) 507 -3.5 -5.6°
Drops below altitude 10° 18:11:26 10° 47° (NE) 1,479 -1.5 -6.4°
Enters shadow 18:12:14 - 45° (NE) 1,803 -1.1 -6.5°
